Location: Bay Shore Mobile Home Park
(38.5762°N, 75.0841°W)
Time: 09:45:02
(UTC+00:00)

Cosmos 1269 Rocket - Pass Details

Date: 15 November 2025
Orbit: 768 x 775 km, 74.1° (Epoch: 05 December)

Event Time Altitude Azimuth Distance (km) Brightness Sun altitude
Rises 22:14:58 0° 202° (SSW) 3,223 7.9 -5.9°
Reaches altitude 10° 22:17:21 10° 205° (SSW) 2,301 7.2 -6.4°
Maximum altitude 22:22:33 72° 289° (WNW) 809 4.3 -7.3°
Drops below altitude 10° 22:27:49 10° 14° (NNE) 2,320 6.2 -8.3°
Sets 22:30:13 0° 17° (NNE) 3,252 6.9 -8.8°
